COSMOS 2251 DEB

Satellite information

Favourite Embed

Satellite Type and Status

DEBRISIN ORBIT

Key statistics

Satellite COSMOS 2251 DEB at a glance.

Uptime

11710

Days in orbit

Revolutions

≈ 14.5

Per day

Orbit

LEO

Low Earth Orbit

Inclination

74.0

Latest

Satellite identification and parameters

Extended collection of information and parameters for COSMOS 2251 DEB.

Object identification

Identified? True

Debris? True

Object name: COSMOS 2251 DEB

International designator: 1993-036VJ

Object number (NORAD): 34572

Object ID (CCSDS): 34572

Country: COMMONWEALTH OF INDEPENDENT STATES (CIS)

Current information (Y/N): Y

RCS size: SMALL

Orbital parameters

Period: 99.543 minutes

Inclination: 74.0118 deg

SMA: 7114.881 km

Apoapsis: 788.775 km

Periapsis: 684.717 km

RAAN: 51.5022 deg

Eccentricy: 0.0073127

Argument of periapsis: 161.5071 deg

Mean anomaly: 210.1037 deg

Mean motion: 14.46609593 rev/day

Mean motion (dot): 0.00004706 rev/day2

B* drag term: 0.0012683 1/REarth

Two-line elements (TLE)

Creation date: July 8, 2025, 2:27 a.m.

Reference frame: TEME

Reference center: EARTH

Epoch: July 7, 2025, 8:58 p.m. UTC

TLE line 0: 0 COSMOS 2251 DEB

TLE line 1: 1 34572U 93036VJ 25188.87365582 .00004706 00000-0 12683-2 0 9999

TLE line 2: 2 34572 74.0118 51.5022 0073127 161.5071 210.1037 14.46609593850936

Live tracking on map

Real-time ground track for satellite COSMOS 2251 DEB.

In-orbit conjunctions

A list of the most updated potential collisions computed for object COSMOS 2251 DEB.

Target Orbit TCA Probability of collision Miss distance Type
NOAA 16 DEB SSO 2025-05-05 02:10:21 0.000101397 329.0 (m) DEBRIS
NOAA 17 DEB SSO 2024-11-16 03:48:50 0.0001145838 567.0 (m) DEBRIS

Associated space launch

Military communications satellite. Destroyed in a collision with Iridium 33.

COSMOS 2251 DEB was lifted into orbit during the mission ‘Kosmos-3M | Strela-2M 51’, on board a Kosmos-3M space rocket.

The launch took place on June 16, 1993, 4:17 a.m. from 132/1 (132L).

For more information about the launch, click the button.

Launch to space Kosmos-3M | Strela-2M 51
Kosmos-3M | Strela-2M 51

Agency: N/A

Status: Launch Successful

Launch date: June 16, 1993, 4:17 a.m. UTC

Rocket: Kosmos-3M

Launch pad: 132/1 (132L)

Location: Plesetsk Cosmodrome, Russian Federation

...

Latest news about this satellite

There are no fresh news available about this satellite. Check back as we update our databases every day.


Newsletter sign-up

Weekly statistics, charts and insights to help you stay on top of the space industry.